Lapse_Rate
5.9 5.3 5.2 4.4 3.8 4.0 2.5 2.5 3.5 2.6 2.9 1.8 0.8 -0.7 -0.8 0.3 1.3 1.2 2.3 2.9 3.5 4.0 6.4 5.0 4.8 4.4 4.8 5.1 5.4 5.5 5.3 5.8 5.8 6.6 6.1 6.1 7.8 9.2
6.8 6.1 5.8 5.0 3.5 3.0 3.1 2.5 3.1 3.7 5.3 1.1 -0.3 -1.0 -0.2 0.4 1.5 1.2 2.0 2.5 3.3 3.6 4.0 4.4 4.4 4.5 4.5 4.7 4.8 5.0 5.1 4.9 5.3 5.8 6.1 6.6 7.3 6.5
6.5 6.4 6.2 5.5 4.4 3.5 2.8 2.9 3.0 3.5 4.0 -0.1 -0.8 -1.1 -0.5 0.4 0.2 0.6 1.3 1.2 2.7 3.8 4.7 4.6 4.7 4.5 4.2 4.4 4.7 4.7 4.6 4.4 4.8 5.3 5.7 5.9 5.5 5.9
6.0 6.1 6.2 5.2 5.4 4.4 3.5 3.2 3.3 3.0 1.7 0.4 -0.7 -1.3 -0.7 -0.1 -0.5 -0.2 0.2 0.1 1.7 4.3 5.0 4.9 4.9 4.6 4.6 4.4 4.5 4.5 4.5 4.4 4.6 4.5 4.6 4.7 5.1 5.6
6.7 6.5 6.4 5.0 5.0 3.9 3.8 3.6 3.3 2.2 1.3 0.5 -0.8 -1.5 -1.9 -1.6 -1.7 -1.2 -0.9 0.1 1.8 3.2 4.6 4.8 4.8 4.6 4.2 4.4 4.6 4.8 4.8 4.7 4.6 4.4 4.2 4.4 4.8 4.8
6.0 5.8 5.6 5.2 4.2 3.6 3.8 3.4 2.0 1.5 1.0 0.4 -0.5 -1.2 -1.1 -1.8 -0.3 0.6 0.9 0.1 1.0 2.0 2.6 3.6 3.7 3.9 4.1 4.2 4.4 4.3 4.2 4.1 4.2 4.3 4.5 4.8 4.7 4.8
3.1 3.2 3.8 4.5 3.6 3.8 3.4 2.3 1.6 1.5 0.5 0.1 -0.3 -0.2 -0.4 -0.1 0.6 -0.3 1.1 1.1 0.0 -0.2 0.1 0.4 1.1 0.7 1.2 1.5 2.5 3.1 3.3 3.6 4.0 4.5 4.9 5.2 5.0 5.5
1.8 2.0 2.3 2.8 3.5 3.6 3.6 2.8 2.5 1.4 1.0 0.9 0.6 1.7 0.7 0.7 -0.1 1.0 1.2 1.1 2.0 -1.3 -0.8 -0.0 -0.7 -0.9 0.2 0.9 1.5 3.0 3.6 4.2 4.9 5.2 5.6 5.1 5.3 5.5
1.5 1.6 2.1 2.5 2.2 2.6 2.7 2.6 2.8 2.7 2.6 0.9 1.6 1.6 0.8 0.6 0.6 0.1 0.1 -0.0 0.6 -1.1 -0.6 -0.1 -1.4 -0.5 0.6 1.3 2.6 3.4 3.8 4.2 4.6 5.3 5.3 5.5 5.5 5.4
0.8 1.0 1.0 0.8 1.3 0.6 -0.0 -0.1 0.3 0.2 1.0 1.5 2.0 0.8 0.1 -0.6 0.6 0.5 0.2 -0.5 -0.3 -0.6 -0.8 0.0 -1.4 -0.2 -0.2 0.7 1.1 2.2 3.0 3.7 4.5 5.0 4.9 5.2 5.3 5.4
1.4 1.7 1.7 1.8 2.5 2.0 0.7 0.4 1.1 1.7 2.7 2.6 1.6 1.6 1.6 1.8 0.3 0.2 -0.3 -0.2 -0.4 -0.0 -1.1 0.1 -0.5 -0.4 -0.5 -0.5 0.5 2.2 3.8 4.3 5.2 5.4 5.7 5.9 5.7 6.0
2.1 3.0 3.7 3.1 3.2 2.3 0.9 0.8 0.5 -0.2 0.3 -0.2 -0.5 0.2 0.7 1.8 1.6 0.6 -0.0 -1.1 -1.0 -1.2 -0.0 -0.1 0.4 0.2 -0.0 1.0 1.1 1.9 2.0 2.9 4.2 4.8 5.5 5.3 5.0 4.4
2.4 2.4 2.4 3.1 2.9 2.8 1.7 0.4 -0.1 0.0 0.4 -0.9 -1.1 -1.2 -1.1 -1.1 -1.3 -0.4 -0.0 -0.6 -1.1 -0.2 1.0 -0.5 -0.8 0.2 -0.3 1.0 1.7 2.1 2.0 2.2 2.3 2.4 3.0 3.6 4.0 4.6
1.0 0.8 2.3 3.3 3.2 3.0 2.2 2.2 1.4 -0.1 -0.8 -0.7 -0.5 -0.9 -0.5 -0.3 -0.3 -0.0 0.5 0.6 0.8 0.8 1.7 1.3 -1.7 0.1 -1.1 -0.7 1.4 2.2 2.5 2.2 2.1 1.8 1.9 2.8 3.4 4.6
1.1 3.2 3.7 3.8 3.5 3.1 3.0 2.3 1.1 -0.1 0.2 0.5 0.7 0.4 0.4 0.3 0.1 0.1 0.6 0.8 1.0 1.3 1.8 1.7 0.4 1.0 -0.2 0.4 1.6 1.3 2.2 1.8 2.3 1.9 2.0 1.9 2.0 2.5
1.4 1.7 2.6 2.7 2.8 1.7 0.2 0.4 0.3 0.3 0.9 0.2 1.0 0.8 0.3 -0.1 0.0 0.2 -0.1 0.2 -0.6 0.0 1.6 2.4 2.3 1.0 -0.9 0.9 2.0 1.2 1.9 2.0 1.6 2.1 2.7 2.9 2.9 2.9
0.8 0.7 0.9 0.8 0.9 0.9 0.7 0.8 0.7 1.0 0.6 0.7 0.2 0.2 0.8 0.6 0.6 -0.1 -0.5 -1.5 -1.5 -1.0 -0.3 0.6 2.7 2.4 1.7 -0.1 0.7 1.7 1.9 1.8 2.2 2.4 2.9 2.7 2.8 3.4
1.2 1.0 1.3 1.3 1.7 1.8 1.7 1.5 1.0 1.0 -0.1 -0.2 -0.7 -0.5 -0.3 -0.8 -0.7 -1.0 -1.6 -1.8 -1.3 -0.7 -0.3 -0.8 -1.9 -0.2 -1.1 0.1 3.0 2.6 2.1 2.1 2.6 3.3 3.7 3.7 2.9 3.4
1.6 1.9 1.4 1.2 0.5 0.2 -0.3 -0.5 0.0 -0.1 -0.1 -1.5 -1.7 -2.0 -1.9 -1.6 1.3 -1.2 -0.3 -0.6 -0.8 0.3 0.8 0.0 -0.1 1.5 -0.3 3.3 2.1 6.7 4.0 3.7 3.7 3.9 4.4 4.0 4.0 3.6
1.5 1.3 0.1 -0.1 -0.1 -0.4 -0.8 -1.0 -0.9 -1.2 -1.4 -1.1 -1.9 -2.2 -2.9 -2.6 -2.2 -1.2 0.4 0.4 0.5 0.0 0.4 0.1 0.7 2.4 2.8 4.9 5.7 4.3 5.7 4.5 4.3 4.2 3.9 4.1 4.0 4.3
1.4 0.1 -0.4 -0.5 -0.7 -1.0 -0.9 -1.3 -1.6 -1.7 -1.2 -2.7 -2.9 -3.0 -2.1 -1.5 -0.0 0.3 0.3 3.7 4.2 4.0 3.3 2.0 3.4 5.6 2.0 0.9 3.2 4.3 3.8 5.2 5.6 4.9 4.6 4.9 4.6 4.5
1.3 0.1 0.1 -0.5 -0.5 -1.3 -1.4 -1.4 -1.5 -0.1 -0.5 -0.7 -0.4 0.4 1.6 1.0 1.0 0.5 1.1 2.0 2.7 4.3 4.2 4.2 3.5 0.5 -0.1 2.6 5.4 4.0 3.4 3.5 4.3 4.8 5.2 5.6 5.4 5.8
0.1 -0.1 -0.3 0.2 0.6 0.9 0.9 1.0 0.2 0.8 2.0 2.3 2.4 1.5 2.8 3.3 3.6 4.1 4.4 5.2 4.3 4.6 2.9 3.6 1.6 -0.7 0.4 1.2 4.9 4.4 3.5 3.0 3.5 3.1 2.8 4.9 5.7 6.3
Wind_Speed
11 9 8 7 6 6 4 4 5 4 5 4 3 4 7 11 7 11 10 11 9 8 8 9 10 7 3 6 7 8 9 10 9 11 10 10 12 12
7 10 9 6 7 6 6 4 3 4 3 2 1 2 6 8 9 12 9 10 9 9 7 7 6 6 7 8 8 9 10 8 9 11 12 11 10 11
9 10 10 8 7 7 6 4 4 4 4 1 2 2 2 5 8 10 10 9 9 10 9 8 8 8 7 8 10 10 10 9 10 11 11 11 10 12
9 9 10 6 10 9 7 8 7 5 3 4 2 2 1 3 5 6 7 7 8 7 8 10 10 8 8 10 11 11 10 10 10 10 10 9 11 13
9 10 10 9 10 7 7 6 6 4 2 3 3 2 1 2 3 4 3 3 3 4 6 8 9 8 7 9 10 11 11 11 10 9 10 10 13 12
8 8 7 9 8 9 8 7 7 7 5 5 3 2 2 2 3 3 2 1 1 1 1 3 3 4 7 9 10 10 10 9 10 11 11 13 12 13
5 4 3 5 10 11 6 8 9 7 6 6 4 2 2 3 5 3 2 2 1 1 0 1 4 4 7 9 9 9 9 10 11 11 13 13 12 13
7 7 5 8 5 9 9 15 13 11 7 5 3 5 4 3 3 4 3 2 2 2 2 2 1 2 8 9 9 10 10 11 13 14 14 11 13 14
7 7 7 5 9 8 15 16 12 9 7 6 6 4 5 7 8 4 3 2 2 1 1 1 1 2 6 7 9 11 12 15 17 16 10 12 15 16
9 8 8 8 8 10 11 10 10 7 4 2 3 5 4 6 6 4 4 5 3 2 1 0 1 2 2 6 8 10 11 11 10 9 10 14 17 17
8 9 8 8 13 15 12 12 10 9 15 18 18 17 19 17 14 7 3 3 1 1 1 1 1 2 2 2 3 4 3 3 7 12 17 20 20 22
8 9 15 10 13 12 9 11 11 5 9 8 7 12 14 14 9 4 4 3 2 2 2 1 1 2 3 1 3 4 6 8 13 15 17 21 21 15
6 6 6 15 15 15 14 7 8 7 11 8 7 5 5 5 4 8 6 3 2 1 3 3 1 1 1 3 2 3 6 9 12 15 17 17 17 16
6 4 7 16 16 18 13 17 16 11 5 5 5 3 3 3 3 5 6 5 4 3 6 4 2 2 2 2 3 2 3 9 11 8 8 15 17 20
4 12 17 18 18 15 17 14 11 4 4 4 3 2 1 2 4 2 2 2 1 1 4 5 3 3 3 3 4 5 7 3 10 6 6 7 8 12
10 8 12 14 15 11 8 6 4 3 2 2 2 2 2 1 1 1 1 1 1 2 2 6 7 5 2 4 5 9 7 4 4 6 7 9 14 16
7 4 4 4 4 4 3 3 2 2 2 1 1 1 1 1 1 1 1 1 2 1 2 2 8 9 8 4 4 7 8 7 7 7 7 9 9 11
4 3 2 3 3 1 1 0 1 1 0 1 1 1 2 2 2 1 1 2 3 2 2 2 1 2 3 7 18 8 6 7 7 8 8 9 11 10
3 2 2 1 1 1 0 0 1 1 1 1 2 2 2 2 4 2 2 2 2 2 3 2 2 2 2 6 3 14 6 7 7 9 8 9 11 12
3 2 1 1 1 1 1 1 2 2 1 2 2 2 2 2 2 3 3 3 4 3 4 2 3 5 4 5 5 4 14 9 8 9 10 9 11 30
3 2 2 2 2 2 2 2 1 2 2 1 2 2 2 2 3 3 4 9 8 4 5 3 5 10 1 1 5 8 6 20 19 11 10 9 11 12
3 2 2 2 2 2 2 2 2 2 2 2 2 2 2 1 3 3 3 3 2 4 5 5 2 1 1 3 9 11 8 9 17 24 27 23 10 6
3 3 3 3 4 4 3 3 2 2 2 2 2 2 3 4 3 3 3 3 3 4 2 3 2 1 3 3 11 10 13 14 9 12 13 19 25 30
Wind_Direction
244 230 215 205 194 201 172 172 166 168 215 216 172 167 130 145 174 160 176 163 174 185 205 125 125 128 161 230 245 251 258 258 261 259 263 269 272 279
232 229 229 211 195 192 188 181 162 160 219 126 164 73 145 150 167 158 194 168 178 157 132 132 141 171 208 230 240 248 244 247 252 258 261 266 272 280
228 225 223 204 201 187 176 174 172 153 185 143 76 86 89 142 121 143 173 165 159 172 170 168 195 208 213 237 240 234 239 249 259 261 266 266 273 279
222 219 217 192 202 190 187 180 180 188 137 145 138 109 137 152 136 135 155 152 153 161 185 193 209 219 233 253 246 233 244 255 257 260 271 270 270 276
232 220 216 193 197 187 178 176 168 151 130 122 133 128 114 141 96 88 102 120 159 199 220 227 228 229 243 249 245 241 261 266 264 256 265 263 274 278
224 199 188 191 187 174 164 160 152 141 126 123 100 120 111 101 96 129 142 94 147 190 232 256 257 223 236 245 249 253 261 250 255 257 261 272 276 278
92 98 135 186 191 176 163 155 150 139 141 129 117 115 118 158 173 146 121 135 191 185 153 259 237 247 260 270 269 251 247 256 257 262 273 270 268 273
95 79 79 96 132 139 142 156 163 153 148 136 116 155 157 145 123 154 125 148 211 164 140 268 165 291 272 258 245 246 256 262 261 267 266 259 276 281
76 80 74 68 92 103 112 112 110 111 138 110 155 165 159 167 146 136 131 118 146 170 131 276 72 273 246 250 258 255 265 273 270 262 244 273 285 284
60 69 75 65 76 97 91 74 66 51 55 89 126 125 112 122 122 132 131 111 91 87 100 291 346 263 287 277 278 271 270 265 250 230 265 291 292 283
69 69 75 91 104 103 96 94 82 75 83 92 97 105 117 122 123 114 115 109 92 184 86 136 322 296 292 291 285 255 278 262 253 270 285 295 292 287
69 74 82 89 98 104 101 106 100 81 96 80 69 72 82 101 93 87 134 126 117 35 209 130 8 15 328 297 301 278 267 279 288 288 291 295 294 293
68 65 75 90 95 93 87 92 111 116 99 93 88 77 71 72 74 83 80 111 115 145 187 111 141 70 159 298 292 260 251 269 272 280 287 295 297 293
78 63 82 89 91 93 90 100 102 94 83 85 90 84 82 76 75 82 88 96 104 143 170 154 159 162 157 305 271 287 275 280 271 275 282 291 291 291
84 93 93 92 89 83 87 87 85 73 82 81 85 66 111 139 133 114 92 80 51 229 206 203 173 182 165 207 274 283 308 290 287 278 269 270 277 281
68 82 83 81 76 76 68 65 72 83 100 112 138 130 116 98 126 146 137 118 40 311 261 223 217 180 217 229 240 275 277 276 284 293 284 280 275 266
79 59 55 55 61 59 58 68 70 67 92 131 130 157 182 168 215 165 150 123 188 218 261 275 244 242 234 206 268 258 270 274 270 271 285 290 283 276
58 70 68 70 85 88 87 34 351 320 285 150 178 199 212 211 221 223 150 185 224 225 245 229 279 346 337 268 229 257 269 265 276 283 285 283 287 288
75 63 63 60 11 9 332 199 287 298 286 235 228 236 231 238 269 214 221 212 260 247 254 195 210 207 235 275 258 238 258 272 279 283 273 267 277 281
45 45 15 4 358 337 324 280 303 319 293 268 261 251 235 226 245 244 223 232 243 261 269 215 221 228 221 265 282 265 268 277 275 277 279 276 272 278
25 19 7 6 356 344 326 322 305 294 278 294 289 271 250 209 266 248 249 269 264 258 255 251 251 256 195 340 288 285 273 267 267 268 279 280 284 287
19 16 357 360 358 351 343 345 337 342 341 332 316 280 297 230 262 270 245 248 246 257 274 273 288 3 114 235 284 289 289 290 281 282 275 267 266 271
22 31 31 31 25 16 13 3 358 336 349 347 349 343 347 330 299 279 274 273 290 282 279 301 281 243 241 228 276 283 284 288 293 302 294 277 273 269